Weather in Shalimovka

Russia / Oryol Oblast     52°30′59″N   37°10′26″E
temp.,
°C
wind,
m/s
gust,
m/s
humid.,
%
clouds,
%
prec.,
mm/h
press.,
hPa
HPBL,
m
3 march, wed
wed300:000nw61390100 0.1 1014714
03:00−1nw6149096 0.2 1015631
06:00−2nnw6149173 0.1 1016689
09:00−4nnw6138755 0.0 1019598
12:00−2nnw610840 0.0 1020862
15:000wnw598627 0.0 1020739
18:00−2w411911 0.0 1018298
21:00−1w5129331 0.0 1018741
4 march, thu
thu400:000w61186100 0.0 1016708
03:00−3wsw6129196 0.0 1015348
06:00−2wsw7139052 0.0 1012350
09:00−2wsw7148737 0.0 1011445
12:00+1wsw8158217 0.0 1008674
15:00+1wsw7149449 0.0 1006660
18:00+2wsw71593100 0.0 1003699
21:00+2wsw61495100 0.1 1002456
5 march, fri
fri500:00+1w61298100 0.3 1001450
03:000w61197100 0.5 1003541
06:00−2nw4797100 0.4 1005340
09:00−4n4693100 0.6 1007383
12:00−2n238695 0.0 1009432
15:00−2nnw228597 0.0 1010534
18:00−3nne1290100 0.0 101121
21:00−5n1289100 0.0 101321
6 march, sat
sat600:00−5n3794100 0.0 1015221
03:00−7n358994 0.0 1016109
06:00−8nnw23885 0.0 101637
09:00−7nw238810 0.0 1016107
12:00−5wnw127799 0.0 1017326
15:00−4wsw017667 0.0 1017507
18:00−6ne229135 0.1 101861
21:00−7nnw359267 1.3 1019164
7 march, sun
sun700:00−9wsw33827 0.0 102038
03:00−8sw511854 0.0 1018281
06:00−7sw7148150 0.0 1015523
09:00−5sw9177575 0.0 1012773
12:00−3wsw101773100 0.0 10091087
15:00−2wsw111978100 0.0 10061326
18:00−2wsw9178197 0.0 10041044
21:00−2wsw8177895 0.0 1004826